Flag for Norway Weather past 2 weeks in Gjøvik, Norway

Now
61 °F

Cool.


Feels Like: 61 °F
Forecast: 46 / 59 °F
Wind: 1 mph from South

Location: Lillehammer-Saetherengen

Current Time: Aug 21, 2014 at 8:17:21 PM

Latest Report: Aug 21, 2014 at 7:00 PM


Visibility: N/A

Pressure: 29.56 "Hg

Humidity: 64%

Dew point: 48 °F

Location of GjøvikLocation

Historic Weather in Gjøvik — Graph

°F

Gjøvik temperature yesterday

Maximum temperature yesterday: 65 °F (at 4:00 PM)
Minimum temperature yesterday: 50 °F (at 5:00 AM)
Average temperature yesterday: 56 °F

Past Weeks' High & Low Weather Summary

 TemperatureHumidityPressure
High75 °F (Aug 8, 4:00 PM)96% (Aug 7, 7:00 AM)29.92 "Hg (Aug 7, 7:00 AM)
Low45 °F (Aug 21, 7:00 AM)40% (Aug 21, 5:00 PM)29.15 "Hg (Aug 18, 3:00 PM)
Average58 °F76%29.57 "Hg
* Reported Aug 6 7:00 PM — Aug 21 7:00 PM, Gjøvik, Weather by CustomWeather, © 2014

Note: Actual official high and low records may vary slightly from our data, if they occured in-between our weather recording intervals... More about our weather records

Advertising

Gjøvik weather history for previous 24 hours

 ConditionsComfort  
Time TempWeatherWind HumidityBarometerVisibility
7:00 PM
Aug 21
61 °FCool.1 mph64%29.56 "HgN/A
6:00 PM63 °FMild.2 mph53%29.55 "HgN/A
5:00 PM64 °FMild.2 mph40%29.55 "HgN/A
4:00 PM63 °FMild.1 mph45%29.55 "HgN/A
3:00 PM62 °FRefreshingly cool.2 mph49%29.56 "HgN/A
2:00 PM63 °FMild.2 mph48%29.56 "HgN/A
1:00 PM64 °FMild.2 mph45%29.56 "HgN/A
12:00 PM62 °FRefreshingly cool.2 mph46%29.56 "HgN/A
11:00 AM59 °FRefreshingly cool.2 mph56%29.57 "HgN/A
10:00 AM56 °FCool.2 mph67%29.57 "HgN/A
9:00 AM51 °FCool.2 mph78%29.57 "HgN/A
8:00 AM47 °FCool.2 mph89%29.57 "HgN/A
7:00 AM45 °FQuite cool.2 mph91%29.58 "HgN/A
6:00 AM46 °FCool.2 mph91%29.57 "HgN/A
5:00 AM46 °FCool.2 mph90%29.57 "HgN/A
4:00 AM47 °FCool.1 mph89%29.57 "HgN/A
3:00 AM48 °FCool.2 mph88%29.56 "HgN/A
2:00 AM49 °FCool.2 mph88%29.54 "HgN/A
1:00 AM50 °FCool.1 mph86%29.54 "HgN/A
12:00 AM52 °FCool.1 mph84%29.50 "HgN/A
11:00 PM
Aug 20
52 °FCool.1 mph86%29.50 "HgN/A
10:00 PM53 °FCool.1 mph87%29.50 "HgN/A
9:00 PM54 °FCool.2 mph81%29.47 "HgN/A
8:00 PM57 °FCool.No wind78%29.44 "HgN/A
Weather by CustomWeather, © 2014

See weather overviewHow to use our weather pages